Location: Hains Lake
(37.8540°N, 99.8578°W)
Time: 13:35:35
(UTC+00:00)

STARLINK 1054 - Pass Details

Date: 11 December 2019
Orbit: 549 x 550 km, 53.0° (Epoch: 27 January)

Event Time Altitude Azimuth Distance (km) Brightness Sun altitude
Exits shadow 11:10:00 22° 52° (NE) 1,223 5.7 -29.7°
Drops below altitude 10° 11:12:27 10° 85° (E) 1,832 7.2 -29.2°
Enters shadow 12:11:08 -67° 307° (NW) 12,354 10.4 -17.9°
Maximum altitude 12:48:51 56° 226° (SW) 663 3.9 -10.8°
